Location: Mapua
(41.2500°S, 173.1000°E)
Time: 16:16:56
(UTC+12:00)

X-37B - Visible Passes

Search period start: 06 May 2021 00:00
Search period end: 16 May 2021 00:00
Orbit: 386 x 389 km, 45.0° (Epoch: 04 May)

Date Brightness Start Highest point End Pass type
(mag) Time Alt. Az. Time Alt. Az. Time Alt. Az.
06 May 3.3 06:33:15 10° NNW 06:35:40 20° NE 06:38:06 10° E visible
07 May 3.8 05:36:39 10° NNE 05:37:32 11° NE 05:38:26 10° ENE visible
08 May 2.1 06:12:25 10° NW 06:15:24 35° NNE 06:18:23 10° E visible
09 May 2.9 05:16:54 20° NNE 05:17:11 20° NE 05:19:39 10° E visible
09 May 0.6 06:50:19 10° WNW 06:53:34 82° SSW 06:56:49 10° ESE visible
10 May 1.0 05:54:02 34° NW 05:55:12 62° NNE 05:58:25 10° ESE visible
11 May 3.4 04:58:40 20° E 04:58:40 20° E 04:59:55 10° E visible
11 May 0.8 06:30:59 15° W 06:33:30 56° SSW 06:36:42 10° ESE visible
12 May 0.9 05:35:30 63° SE 05:35:30 63° SE 05:38:20 10° ESE visible
13 May 1.2 06:12:14 29° WSW 06:13:29 44° S 06:16:37 10° ESE visible
14 May 2.7 05:16:37 26° SE 05:16:37 26° SE 05:18:13 10° ESE visible
14 May 1.4 06:48:54 10° WSW 06:51:59 41° S 06:55:05 10° ESE visible
15 May 1.3 05:53:14 39° SSW 05:53:29 40° S 05:56:35 10° ESE visible
